DELTA 1 DEB

Satellite information

Favourite Embed

Satellite Type and Status

DEBRISIN ORBIT

Key statistics

Satellite DELTA 1 DEB at a glance.

Uptime

17820

Days in orbit

Revolutions

≈ 12.8

Per day

Orbit

SSO

Sun Synchronous Orbit

Inclination

101.7

Latest

Satellite identification and parameters

Extended collection of information and parameters for DELTA 1 DEB.

Object identification

Identified? True

Debris? True

Object name: DELTA 1 DEB

International designator: 1976-077DU

Object number (NORAD): 12539

Object ID (CCSDS): 12539

Country: UNITED STATES OF AMERICA (US)

Current information (Y/N): Y

RCS size: SMALL

Orbital parameters

Period: 112.667 minutes

Inclination: 101.6971 deg

SMA: 7727.234 km

Apoapsis: 1649.072 km

Periapsis: 1049.125 km

RAAN: 29.8026 deg

Eccentricy: 0.0388203

Argument of periapsis: 16.715 deg

Mean anomaly: 10.5563 deg

Mean motion: 12.78105497 rev/day

Mean motion (dot): 0.00004611 rev/day2

B* drag term: 0.015341 1/REarth

Two-line elements (TLE)

Creation date: May 12, 2025, 10:56 p.m.

Reference frame: TEME

Reference center: EARTH

Epoch: May 12, 2025, 4:15 p.m. UTC

TLE line 0: 0 DELTA 1 DEB

TLE line 1: 1 12539U 76077DU 25132.67772906 .00004611 00000-0 15341-1 0 9991

TLE line 2: 2 12539 101.6971 29.8026 0388203 16.7150 10.5563 12.78105497 78636

Live tracking on map

Real-time ground track for satellite DELTA 1 DEB.

In-orbit conjunctions

A list of the most updated potential collisions computed for object DELTA 1 DEB.

Target Orbit TCA Probability of collision Miss distance Type
CZ-4C R/B SSO 2025-04-16 07:28:53 0.0001252144 340.0 (m) ROCKET BODY

Associated space launch

Meteorological satellite using radiometric imaging

DELTA 1 DEB was lifted into orbit during the mission ‘Delta 2310 | NOAA 5’, on board a Delta 2310 space rocket.

The launch took place on July 29, 1976, 5:07 p.m. from Space Launch Complex 2W.

For more information about the launch, click the button.

Launch to space Delta 2310 | NOAA 5
Delta 2310 | NOAA 5

Agency: N/A

Status: Launch Successful

Launch date: July 29, 1976, 5:07 p.m. UTC

Rocket: Delta 2310

Launch pad: Space Launch Complex 2W

Location: Vandenberg SFB, CA, USA

...

Latest news about this satellite

There are no fresh news available about this satellite. Check back as we update our databases every day.


Newsletter sign-up

Weekly statistics, charts and insights to help you stay on top of the space industry.